Airfield :







YOU CAN JOIN US ON...

 
LOGIN :

Register | Disclaimer

   EN    FR    IT 

 









Legend :    VFR   Marginal VFR   IFR   Intensive IFR   Very Intensive IFR
Visi :
Ceiling :
>= 8 km
>= 3000ft
5 to 8 km
1000 to 3000 ft
1500m to 5 km
500 to 1000 ft
800 to 1500m
200 to 500 ft
< 800m
< 200 ft
Symbols :   Thunderstorms  Fog  Heavy snow  Heavy precipitations  Wind > 20 kt






- Airport Elevation : 49 ft


KOWD - Norwood Memorial

CURRENT METAR :
  • 240453Z AUTO 17004KT 10SM CLR 05/00 A2999 RMK AO2 SLP153 T00500000 401780000

EXPIRED METARs :
  • 240353Z AUTO 18005KT 10SM CLR 06/00 A3000 RMK AO2 SLP157 T00560000
  • 240253Z AUTO 17006KT 10SM CLR 07/00 A3001 RMK AO2 SLP163 T00670000 58007
  • 240153Z AUTO 19005KT 10SM CLR 08/M01 A3004 RMK AO2 SLP173 T00781006
  • 240053Z AUTO 17006KT 10SM CLR 08/M02 A3003 RMK AO2 SLP169 T00831022

TAF N/A
KZBW FIR / North America



MET'MAP, your aeronautical weather chart ! - Copyright ORBIFLY December 2007 - Disclaimer

ORBIFLY MET'MAP TEAM :

Programming & Development : Alexandra Zaïnal
Original concept : Baudouin d'Aumeries
Technical & hardware support : Manuel Goepfert
Assistance : Marc-Olivier Méhu




SOURCES & CREDITS :

   NOAA